TimeCDT,TemperatureF,Dew PointF,Humidity,Sea Level PressureIn,VisibilityMPH,Wind Direction,Wind SpeedMPH,Gust SpeedMPH,PrecipitationIn,Events,Conditions,WindDirDegrees,DateUTC
12:15 AM,37.4,37.4,100,30.01,10.0,SW,5.8,-,N/A,,Clear,230,2013-03-19 05:15:00
12:35 AM,37.4,37.4,100,30.02,10.0,WSW,6.9,-,N/A,,Clear,240,2013-03-19 05:35:00
12:55 AM,39.2,37.4,93,30.02,10.0,SW,6.9,-,N/A,,Clear,230,2013-03-19 05:55:00
1:15 AM,39.2,37.4,93,30.03,10.0,WSW,5.8,-,N/A,,Clear,240,2013-03-19 06:15:00
1:35 AM,39.2,37.4,93,30.03,10.0,SW,6.9,-,N/A,,Clear,230,2013-03-19 06:35:00
1:55 AM,39.2,37.4,93,30.04,10.0,SW,8.1,-,N/A,,Clear,230,2013-03-19 06:55:00
2:15 AM,37.4,37.4,100,30.04,10.0,WSW,9.2,-,N/A,,Clear,240,2013-03-19 07:15:00
2:55 AM,37.4,35.6,93,30.04,10.0,WSW,6.9,-,N/A,,Clear,250,2013-03-19 07:55:00
3:15 AM,37.4,35.6,93,30.05,10.0,NW,6.9,-,N/A,,Clear,310,2013-03-19 08:15:00
3:35 AM,37.4,35.6,93,30.05,10.0,NW,8.1,-,N/A,,Clear,310,2013-03-19 08:35:00
3:55 AM,37.4,35.6,93,30.04,10.0,NNW,5.8,-,N/A,,Clear,330,2013-03-19 08:55:00
4:15 AM,37.4,32.0,81,30.03,10.0,NNW,4.6,-,N/A,,Clear,340,2013-03-19 09:15:00
4:35 AM,37.4,32.0,81,30.03,10.0,North,4.6,-,N/A,,Clear,350,2013-03-19 09:35:00
4:55 AM,35.6,32.0,87,30.05,10.0,WNW,3.5,-,N/A,,Clear,300,2013-03-19 09:55:00
5:15 AM,33.8,32.0,93,30.06,10.0,NW,5.8,-,N/A,,Clear,310,2013-03-19 10:15:00
5:35 AM,33.8,32.0,93,30.06,10.0,NNW,6.9,-,N/A,,Clear,340,2013-03-19 10:35:00
5:55 AM,35.6,32.0,87,30.08,10.0,NNW,8.1,-,N/A,,Clear,340,2013-03-19 10:55:00
6:15 AM,35.6,26.6,70,30.10,10.0,NNW,6.9,-,N/A,,Clear,330,2013-03-19 11:15:00
6:35 AM,33.8,26.6,75,30.10,10.0,North,5.8,-,N/A,,Clear,350,2013-03-19 11:35:00
6:55 AM,33.8,26.6,75,30.10,10.0,NNW,5.8,-,N/A,,Clear,340,2013-03-19 11:55:00
7:15 AM,32.0,26.6,80,30.11,10.0,NNW,5.8,-,N/A,,Clear,340,2013-03-19 12:15:00
7:35 AM,32.0,26.6,80,30.12,10.0,North,6.9,-,N/A,,Clear,360,2013-03-19 12:35:00
7:55 AM,33.8,26.6,75,30.12,10.0,North,3.5,-,N/A,,Clear,10,2013-03-19 12:55:00
8:15 AM,35.6,28.4,75,30.13,10.0,North,4.6,-,N/A,,Clear,360,2013-03-19 13:15:00
8:35 AM,35.6,26.6,70,30.14,10.0,Calm,Calm,-,N/A,,Clear,0,2013-03-19 13:35:00
8:55 AM,37.4,28.4,70,30.14,10.0,Calm,Calm,-,N/A,,Clear,0,2013-03-19 13:55:00
9:15 AM,37.4,26.6,65,30.16,10.0,NNW,5.8,-,N/A,,Clear,340,2013-03-19 14:15:00
9:35 AM,39.2,24.8,56,30.16,10.0,North,10.4,-,N/A,,Clear,350,2013-03-19 14:35:00
9:55 AM,39.2,21.2,49,30.16,10.0,NW,6.9,-,N/A,,Clear,320,2013-03-19 14:55:00
10:15 AM,41.0,23.0,49,30.18,10.0,North,9.2,-,N/A,,Clear,350,2013-03-19 15:15:00
10:35 AM,41.0,23.0,49,30.18,10.0,North,6.9,-,N/A,,Clear,350,2013-03-19 15:35:00
10:55 AM,41.0,23.0,49,30.18,10.0,NNE,5.8,-,N/A,,Clear,20,2013-03-19 15:55:00
11:15 AM,42.8,19.4,39,30.19,10.0,North,10.4,-,N/A,,Clear,350,2013-03-19 16:15:00
11:35 AM,44.6,17.6,34,30.20,10.0,NNW,11.5,16.1,N/A,,Clear,330,2013-03-19 16:35:00
11:55 AM,44.6,17.6,34,30.19,10.0,NW,12.7,-,N/A,,Clear,320,2013-03-19 16:55:00
12:15 PM,46.4,19.4,34,30.20,10.0,NNW,11.5,-,N/A,,Clear,340,2013-03-19 17:15:00
12:35 PM,46.4,17.6,32,30.20,10.0,NNW,10.4,-,N/A,,Clear,340,2013-03-19 17:35:00
12:55 PM,46.4,17.6,32,30.20,10.0,NNW,6.9,-,N/A,,Clear,340,2013-03-19 17:55:00
1:15 PM,48.2,15.8,27,30.20,10.0,NNW,8.1,-,N/A,,Clear,340,2013-03-19 18:15:00
1:35 PM,48.2,15.8,27,30.19,10.0,NNW,11.5,-,N/A,,Clear,330,2013-03-19 18:35:00
1:55 PM,48.2,15.8,27,30.19,10.0,North,11.5,17.3,N/A,,Clear,360,2013-03-19 18:55:00
2:15 PM,48.2,15.8,27,30.19,10.0,North,8.1,-,N/A,,Clear,360,2013-03-19 19:15:00
2:35 PM,48.2,14.0,25,30.18,10.0,North,6.9,-,N/A,,Clear,10,2013-03-19 19:35:00
2:55 PM,50.0,15.8,26,30.18,10.0,Calm,Calm,-,N/A,,Clear,0,2013-03-19 19:55:00
3:15 PM,51.8,14.0,22,30.18,10.0,North,5.8,-,N/A,,Partly Cloudy,10,2013-03-19 20:15:00
3:35 PM,50.0,10.4,20,30.18,10.0,North,5.8,-,N/A,,Partly Cloudy,10,2013-03-19 20:35:00
3:55 PM,50.0,10.4,20,30.18,10.0,NNW,8.1,-,N/A,,Clear,340,2013-03-19 20:55:00
4:15 PM,50.0,10.4,20,30.18,10.0,North,10.4,-,N/A,,Clear,360,2013-03-19 21:15:00
4:35 PM,50.0,8.6,19,30.18,10.0,North,6.9,-,N/A,,Clear,350,2013-03-19 21:35:00
4:55 PM,50.0,8.6,19,30.18,10.0,NNW,11.5,-,N/A,,Clear,340,2013-03-19 21:55:00
5:15 PM,50.0,8.6,19,30.18,10.0,NW,8.1,-,N/A,,Clear,320,2013-03-19 22:15:00
5:35 PM,50.0,8.6,19,30.18,10.0,NW,8.1,-,N/A,,Clear,320,2013-03-19 22:35:00
5:55 PM,50.0,12.2,22,30.18,10.0,NNW,4.6,-,N/A,,Partly Cloudy,340,2013-03-19 22:55:00
6:15 PM,50.0,14.0,24,30.18,10.0,North,8.1,-,N/A,,Partly Cloudy,350,2013-03-19 23:15:00
6:35 PM,48.2,14.0,25,30.18,10.0,North,3.5,-,N/A,,Mostly Cloudy,10,2013-03-19 23:35:00
6:55 PM,48.2,17.6,30,30.19,10.0,North,9.2,-,N/A,,Overcast,350,2013-03-19 23:55:00
7:15 PM,46.4,17.6,32,30.19,10.0,North,9.2,-,N/A,,Overcast,350,2013-03-20 00:15:00
7:35 PM,46.4,17.6,32,30.19,10.0,North,8.1,-,N/A,,Overcast,350,2013-03-20 00:35:00
7:55 PM,46.4,17.6,32,30.19,10.0,NNW,6.9,-,N/A,,Overcast,340,2013-03-20 00:55:00
8:35 PM,44.6,15.8,31,30.19,10.0,North,4.6,-,N/A,,Overcast,10,2013-03-20 01:35:00
8:55 PM,44.6,21.2,39,30.19,10.0,North,5.8,-,N/A,,Overcast,360,2013-03-20 01:55:00
9:15 PM,44.6,19.4,37,30.19,10.0,North,5.8,-,N/A,,Overcast,10,2013-03-20 02:15:00
9:35 PM,44.6,19.4,37,30.19,10.0,NNE,5.8,-,N/A,,Overcast,30,2013-03-20 02:35:00
9:55 PM,42.8,21.2,42,30.19,10.0,NE,6.9,-,N/A,,Overcast,50,2013-03-20 02:55:00
10:15 PM,41.0,23.0,49,30.19,10.0,Calm,Calm,-,N/A,,Overcast,0,2013-03-20 03:15:00
10:35 PM,41.0,24.8,53,30.19,10.0,Calm,Calm,-,N/A,,Overcast,0,2013-03-20 03:35:00
10:55 PM,41.0,23.0,49,30.19,10.0,Calm,Calm,-,N/A,,Overcast,0,2013-03-20 03:55:00
11:15 PM,39.2,19.4,45,30.19,10.0,Calm,Calm,-,N/A,,Overcast,0,2013-03-20 04:15:00
11:35 PM,39.2,21.2,49,30.19,10.0,Calm,Calm,-,N/A,,Overcast,0,2013-03-20 04:35:00
11:55 PM,37.4,24.8,60,30.18,10.0,Calm,Calm,-,N/A,,Mostly Cloudy,0,2013-03-20 04:55:00